Location: Yellowknife
(62.4500°N, 114.3500°W)
Time: 12:00:36
(UTC-07:00)

Amateur Radio Satellites - All Passes

Search period start: 02 March 2015 11:30
Search period end: 03 March 2015 11:30
Location: Yellowknife, 62.4500°N, 114.3500°W

Satellite Date Start Highest point End Downlink Frequencies (MHz)
Time Altitude Azimuth
UKube-1 02 Mar 11:31:47 11:36:12 87° 109° (ESE) 11:40:34 .
BUGSAT 1 02 Mar 11:34:38 11:38:31 32° 265° (W) 11:42:23 437.445
ANTELSAT 02 Mar 11:37:54 11:41:04 19° 274° (W) 11:44:07 437.575/2403.000
CUTE 1.7 + AOD 2 02 Mar 11:39:50 11:43:19 25° 308° (NW) 11:46:47 437.475
HO-68 02 Mar 11:40:09 11:47:04 52° 309° (NW) 11:53:58 435.675
UWE-3 02 Mar 11:41:41 11:45:51 62° 294° (WNW) 11:49:56 435.000/436.395/437.385
DUCHIFAT 1 02 Mar 11:41:57 11:45:32 25° 270° (W) 11:49:03 145.980
SPROUT 02 Mar 11:42:20 11:44:59 16° 83° (E) 11:47:44 437.525
ITAMSAT 1 02 Mar 11:42:56 11:47:14 27° 45° (NE) 11:51:37 435.822/435.867
AO-7 02 Mar 11:44:01 11:50:57 31° 18° (NNE) 11:57:54 29.400- 29.500
Oscar 19 02 Mar 11:44:34 11:49:25 44° 57° (ENE) 11:54:18 437.125/150
DOVE 4 02 Mar 11:45:07 11:49:00 28° 307° (NW) 11:52:40 437.250
RS-15 02 Mar 11:46:32 11:51:26 13° 271° (W) 11:55:44 29.354- 29.394
TISAT 1 02 Mar 11:47:41 11:50:15 16° 83° (E) 11:52:54 437.305
O/OREOS (USA 219) 02 Mar 11:51:31 11:56:07 70° 316° (NW) 12:00:45 437.305
Cubesat XI-IV 02 Mar 11:54:14 11:56:07 12° 348° (NNW) 11:57:57 437.490
GONETS M04 02 Mar 11:55:34 12:02:10 24° 290° (WNW) 12:08:35
CINEMA 3 02 Mar 11:55:45 11:59:37 33° 304° (NW) 12:03:22 145.822/145.860
SO-50 02 Mar 11:56:21 11:58:08 12° 247° (WSW) 11:59:43 436.795
DELFI C3 02 Mar 11:59:17 12:03:06 39° 300° (WNW) 12:06:55 145.870
POLYITAN 1 02 Mar 12:02:36 12:05:38 18° 275° (W) 12:08:34 437.675
POPSAT HIP 1 02 Mar 12:03:19 12:06:20 18° 275° (W) 12:09:16 437.405
CUTE-I 02 Mar 12:03:21 12:05:03 11° 350° (N) 12:06:43 437.470
DANDE 02 Mar 12:12:51 12:15:19 21° 269° (W) 12:17:29 436.750
Oscar 11 02 Mar 12:14:38 12:18:27 30° 305° (NW) 12:22:14 145.826/435.025
CUBEBUG 2 02 Mar 12:18:44 12:22:31 32° 303° (WNW) 12:26:13 437.445
AAUSAT CUBESAT 2 02 Mar 12:25:21 12:28:15 18° 314° (NW) 12:31:06 437.432
COMPASS 1 02 Mar 12:27:46 12:30:30 17° 316° (NW) 12:33:10 437.405
NANOSAT C BR1 02 Mar 12:28:07 12:30:04 13° 280° (W) 12:31:53 145.865
JAS-2 02 Mar 12:35:25 12:39:45 20° 23° (NNE) 12:44:28 435.910
DX 1 02 Mar 12:38:08 12:42:10 35° 304° (NW) 12:46:09 434.975-435.025
AISAT 02 Mar 12:39:39 12:44:05 56° 296° (WNW) 12:48:27 437.250
BRITE-PL 02 Mar 12:40:38 12:43:10 14° 329° (NNW) 12:45:32 437.365/2234.400
CUBEBUG 1 02 Mar 12:44:12 12:48:41 85° 294° (WNW) 12:53:07 437.445
GOMX 1 02 Mar 12:47:12 12:49:38 14° 326° (NW) 12:51:55 467.674
ISS 02 Mar 12:48:33 12:50:07 13° 178° (S) 12:51:39 145.825
VELOX 1 02 Mar 12:49:23 12:53:44 50° 299° (WNW) 12:58:03 145.980
Gurwin Techsat 1B 02 Mar 12:51:40 12:56:44 47° 58° (ENE) 13:01:51 435.225
SWISSCUBE 02 Mar 12:51:51 12:54:41 16° 81° (E) 12:57:39 437.505
HORYU 2 02 Mar 12:53:05 12:56:23 21° 45° (NE) 12:59:45 437.375
SEEDS 02 Mar 12:55:22 12:57:01 12° 324° (NW) 12:58:35 437.485
CANX-2 02 Mar 12:58:35 12:59:35 11° 327° (NNW) 13:00:32 2200.000
FUNcube-1 02 Mar 12:58:58 13:02:20 24° 309° (NW) 13:05:40 145.935
ZACube-1 02 Mar 13:00:06 13:03:27 23° 309° (NW) 13:06:45 437.345
BEESAT 02 Mar 13:00:25 13:03:29 17° 82° (E) 13:06:38 436.000
ESTCUBE 1 02 Mar 13:03:35 13:08:08 62° 295° (WNW) 13:12:39 437.505/2401.250
HUMSAT D 02 Mar 13:05:35 13:09:11 29° 305° (NW) 13:12:45 437.325/437.525
50 SAT 02 Mar 13:05:46 13:09:21 33° 302° (WNW) 13:12:55 437.505
UKube-1 02 Mar 13:08:21 13:11:58 25° 311° (NW) 13:15:31 .
SPROUT 02 Mar 13:17:36 13:21:56 71° 105° (ESE) 13:26:14 437.525
UWE-3 02 Mar 13:18:56 13:21:45 17° 315° (NW) 13:24:29 435.000/436.395/437.385
ITAMSAT 1 02 Mar 13:20:58 13:26:12 80° 68° (ENE) 13:31:30 435.822/435.867
TISAT 1 02 Mar 13:22:37 13:26:54 71° 105° (ESE) 13:31:08 437.305
Oscar 19 02 Mar 13:23:45 13:28:48 53° 259° (W) 13:33:51 437.125/150
DOVE 4 02 Mar 13:24:14 13:25:31 11° 331° (NNW) 13:26:42 437.250
ITUPSAT 1 02 Mar 13:27:11 13:31:06 24° 88° (E) 13:35:04 437.325
HO-68 02 Mar 13:27:50 13:33:35 27° 334° (NNW) 13:39:17 435.675
O/OREOS (USA 219) 02 Mar 13:32:07 13:36:15 31° 340° (NNW) 13:40:23 437.305
Cubesat XI-IV 02 Mar 13:32:15 13:34:10 12° 13° (NNE) 13:36:07 437.490
CINEMA 3 02 Mar 13:34:14 13:35:45 12° 326° (NNW) 13:37:11 145.822/145.860
AO-7 02 Mar 13:34:25 13:42:21 52° 44° (NE) 13:50:19 29.400- 29.500
DELFI C3 02 Mar 13:35:37 13:37:24 13° 321° (NW) 13:39:08 145.870
CUTE-I 02 Mar 13:41:01 13:43:04 12° 15° (NNE) 13:45:11 437.470
Oscar 11 02 Mar 13:52:11 13:53:31 11° 327° (NNW) 13:54:47 145.826/435.025
CUBEBUG 2 02 Mar 13:56:49 13:58:10 11° 326° (NW) 13:59:26 437.445
DX 1 02 Mar 14:15:20 14:17:24 13° 326° (NNW) 14:19:24 434.975-435.025
AISAT 02 Mar 14:16:53 14:19:58 18° 318° (NW) 14:22:57 437.250
JAS-2 02 Mar 14:17:50 14:23:18 40° 49° (NE) 14:29:29 435.910
CUBEBUG 1 02 Mar 14:21:01 14:24:36 24° 311° (NW) 14:28:06 437.445
VELOX 1 02 Mar 14:26:39 14:29:31 17° 320° (NW) 14:32:18 145.980
HORYU 2 02 Mar 14:28:03 14:32:30 72° 66° (ENE) 14:36:57 437.375
SWISSCUBE 02 Mar 14:28:48 14:33:37 62° 104° (ESE) 14:38:24 437.505
Gurwin Techsat 1B 02 Mar 14:31:34 14:36:46 52° 259° (W) 14:42:00 435.225
BEESAT 02 Mar 14:37:29 14:42:19 66° 105° (ESE) 14:47:07 436.000
ESTCUBE 1 02 Mar 14:41:03 14:44:21 20° 317° (NW) 14:47:35 437.505/2401.250
50 SAT 02 Mar 14:42:20 14:43:23 11° 324° (NW) 14:44:22 437.505
HUMSAT D 02 Mar 14:43:14 14:43:53 10° 327° (NNW) 14:44:26 437.325/437.525
UKube-1 02 Mar 14:46:16 14:46:52 10° 333° (NNW) 14:47:24 .
KKS-1 02 Mar 14:52:34 14:56:29 29° 93° (E) 15:00:25 437.445
SPROUT 02 Mar 14:54:01 14:57:46 29° 306° (NW) 15:01:28 437.525
TISAT 1 02 Mar 14:58:46 15:02:28 28° 307° (NW) 15:06:05 437.305
STARS 02 Mar 14:59:33 15:03:12 25° 90° (E) 15:06:52 437.465
ITAMSAT 1 02 Mar 15:01:45 15:06:18 29° 269° (W) 15:10:50 435.822/435.867
ITUPSAT 1 02 Mar 15:04:46 15:09:39 86° 292° (WNW) 15:14:31 437.325
Oscar 19 02 Mar 15:06:38 15:09:26 14° 282° (WNW) 15:12:04 437.125/150
Cubesat XI-IV 02 Mar 15:08:39 15:12:34 21° 37° (NE) 15:16:33 437.490
YUBILEINY 02 Mar 15:09:15 15:16:18 29° 74° (ENE) 15:23:32 435.215
O/OREOS (USA 219) 02 Mar 15:12:59 15:16:53 26° 5° (N) 15:20:46 437.305
HO-68 02 Mar 15:14:21 15:19:20 21° 0° (N) 15:24:19 435.675
CUTE-I 02 Mar 15:17:27 15:21:31 23° 39° (NE) 15:25:39 437.470
AO-7 02 Mar 15:26:39 15:35:00 74° 249° (WSW) 15:43:23 29.400- 29.500
JAS-2 02 Mar 16:02:14 16:08:04 75° 254° (WSW) 16:14:45 435.910
MOZHAYETS 4 02 Mar 16:03:04 16:05:39 15° 80° (E) 16:08:22
HORYU 2 02 Mar 16:05:50 16:09:37 26° 269° (W) 16:13:21 437.375
SWISSCUBE 02 Mar 16:06:55 16:11:21 37° 305° (NW) 16:15:45 437.505
Gurwin Techsat 1B 02 Mar 16:15:12 16:18:07 14° 283° (WNW) 16:20:51 435.225
BEESAT 02 Mar 16:15:37 16:19:58 35° 307° (NW) 16:24:18 436.000
KKS-1 02 Mar 16:29:03 16:33:30 64° 295° (WNW) 16:37:54 437.445
SPROUT 02 Mar 16:31:36 16:32:43 11° 328° (NNW) 16:33:46 437.525
STARS 02 Mar 16:35:45 16:40:10 75° 292° (WNW) 16:44:34 437.465
TISAT 1 02 Mar 16:36:08 16:37:07 11° 329° (NNW) 16:38:02 437.305
ITUPSAT 1 02 Mar 16:43:05 16:47:05 26° 313° (NW) 16:51:04 437.325
Cubesat XI-IV 02 Mar 16:46:34 16:51:48 55° 60° (ENE) 16:57:06 437.490
O/OREOS (USA 219) 02 Mar 16:53:00 16:57:23 39° 29° (NNE) 17:01:45 437.305
CUTE-I 02 Mar 16:55:31 17:00:48 60° 62° (ENE) 17:06:09 437.470
AIST 1 02 Mar 16:57:37 17:01:28 28° 56° (NE) 17:05:19
HO-68 02 Mar 16:59:22 17:05:05 27° 27° (NNE) 17:10:52 435.675
YUBILEINY 02 Mar 17:03:14 17:11:58 77° 99° (E) 17:20:49 435.215
M-CUBED/EXP-1 PRIME 02 Mar 17:15:39 17:19:21 34° 105° (ESE) 17:23:20 437.505
AUBIESAT-1 02 Mar 17:17:43 17:21:24 33° 105° (ESE) 17:25:22 437.475
AO-7 02 Mar 17:22:21 17:29:21 28° 275° (W) 17:36:13 29.400- 29.500
BEESAT 3 02 Mar 17:28:34 17:29:35 11° 115° (ESE) 17:30:43 437.485
BRITE-PL 02 Mar 17:29:17 17:33:01 20° 41° (NE) 17:36:40 437.365/2234.400
GOMX 1 02 Mar 17:35:18 17:38:22 17° 39° (NE) 17:41:24 467.674
SEEDS 02 Mar 17:37:35 17:38:56 11° 35° (NE) 17:40:22 437.485
MOZHAYETS 4 02 Mar 17:39:17 17:43:54 61° 102° (ESE) 17:48:31
CANX-2 02 Mar 17:39:54 17:41:52 13° 38° (NE) 17:43:55 2200.000
SWISSCUBE 02 Mar 17:45:30 17:48:08 15° 328° (NNW) 17:50:42 437.505
JAS-2 02 Mar 17:49:50 17:54:30 23° 281° (W) 17:59:31 435.910
BEESAT 2 02 Mar 17:52:34 17:54:49 15° 119° (ESE) 17:57:10 435.950
BEESAT 02 Mar 17:54:14 17:56:42 14° 329° (NNW) 17:59:06 436.000
CUTE 1.7 + AOD 2 02 Mar 17:57:52 18:00:18 15° 42° (NE) 18:02:50 437.475
CUBESAT XI-V 02 Mar 18:01:22 18:04:36 18° 83° (E) 18:07:56 437.345
STRAND 1 02 Mar 18:05:36 18:08:23 15° 79° (ENE) 18:11:19 437.568
KKS-1 02 Mar 18:06:17 18:09:31 20° 316° (NW) 18:12:41 437.445
DOVE 4 02 Mar 18:10:00 18:13:17 19° 43° (NE) 18:16:32 437.250
STARS 02 Mar 18:12:44 18:16:07 22° 314° (NW) 18:19:26 437.465
CINEMA 3 02 Mar 18:19:26 18:21:50 14° 39° (NE) 18:24:16 145.822/145.860
ITUPSAT 1 02 Mar 18:21:57 18:23:39 12° 335° (NNW) 18:25:17 437.325
Cubesat XI-IV 02 Mar 18:26:57 18:32:06 44° 262° (W) 18:37:18 437.490
O/OREOS (USA 219) 02 Mar 18:32:32 18:37:11 76° 233° (SW) 18:41:47 437.305
Oscar 11 02 Mar 18:34:18 18:36:33 14° 39° (NE) 18:38:54 145.826/435.025
AIST 1 02 Mar 18:35:08 18:39:35 71° 259° (WSW) 18:43:59
CUTE-I 02 Mar 18:36:07 18:41:11 40° 264° (W) 18:46:17 437.470
CUBEBUG 2 02 Mar 18:40:43 18:42:46 13° 38° (NE) 18:44:52 437.445
AAUSAT CUBESAT 2 02 Mar 18:41:07 18:44:05 20° 47° (NE) 18:47:07 437.432
COMPASS 1 02 Mar 18:43:26 18:46:35 21° 49° (NE) 18:49:48 437.405
HO-68 02 Mar 18:44:45 18:51:38 53° 51° (NE) 18:58:34 435.675
PRISM 02 Mar 18:46:57 18:50:45 31° 95° (E) 18:54:34 437.425
M-CUBED/EXP-1 PRIME 02 Mar 18:50:37 18:54:28 54° 304° (NW) 18:58:39 437.505
AUBIESAT-1 02 Mar 18:52:35 18:56:28 56° 304° (WNW) 19:00:42 437.475
DX 1 02 Mar 18:58:21 19:00:49 15° 38° (NE) 19:03:22 434.975-435.025
YUBILEINY 02 Mar 19:01:12 19:09:36 46° 307° (NW) 19:18:03 435.215
BEESAT 3 02 Mar 19:02:53 19:06:44 38° 136° (SE) 19:10:38 437.485
AISAT 02 Mar 19:02:58 19:04:26 12° 30° (NNE) 19:05:59 437.250
BRITE-PL 02 Mar 19:05:23 19:10:43 53° 63° (ENE) 19:15:46 437.365/2234.400
SEEDS 02 Mar 19:09:58 19:13:43 33° 57° (ENE) 19:17:31 437.485
GOMX 1 02 Mar 19:10:40 19:15:35 44° 60° (ENE) 19:20:16 467.674
VELOX 1 02 Mar 19:12:04 19:13:51 12° 32° (NNE) 19:15:43 145.980
CANX-2 02 Mar 19:12:57 19:16:54 40° 60° (ENE) 19:20:53 2200.000
MOZHAYETS 4 02 Mar 19:16:47 19:21:00 35° 304° (NW) 19:25:12
FUNcube-1 02 Mar 19:18:26 19:21:03 16° 43° (NE) 19:23:42 145.935
ZACube-1 02 Mar 19:19:36 19:22:16 17° 44° (NE) 19:24:59 437.345
HUMSAT D 02 Mar 19:23:55 19:25:45 13° 38° (NE) 19:27:39 437.325/437.525
AIST 2 02 Mar 19:26:00 19:29:45 30° 131° (SE) 19:33:33 435.215
UKube-1 02 Mar 19:27:01 19:30:06 19° 44° (NE) 19:33:16 .
GONETS M04 02 Mar 19:27:25 19:30:27 13° 53° (NE) 19:33:52
BEESAT 2 02 Mar 19:28:11 19:32:12 48° 140° (SE) 19:36:16 435.950
ESTCUBE 1 02 Mar 19:28:20 19:29:34 11° 28° (NNE) 19:30:54 437.505/2401.250
CUTE 1.7 + AOD 2 02 Mar 19:31:23 19:35:28 49° 63° (ENE) 19:39:35 437.475
UWE-3 02 Mar 19:37:53 19:41:14 23° 50° (NE) 19:44:35 435.000/436.395/437.385
CUBESAT XI-V 02 Mar 19:38:09 19:42:56 74° 105° (ESE) 19:47:40 437.345
STRAND 1 02 Mar 19:43:44 19:48:51 55° 102° (ESE) 19:53:55 437.568
DOVE 4 02 Mar 19:45:29 19:50:21 56° 65° (ENE) 19:54:58 437.250
DELFI C3 02 Mar 19:48:11 19:51:36 27° 54° (NE) 19:55:05 145.870
CINEMA 3 02 Mar 19:53:50 19:58:12 42° 60° (ENE) 20:02:24 145.822/145.860
Oscar 11 02 Mar 20:07:47 20:11:51 43° 61° (ENE) 20:15:58 145.826/435.025
Cubesat XI-IV 02 Mar 20:11:33 20:13:46 12° 286° (WNW) 20:15:46 437.490
O/OREOS (USA 219) 02 Mar 20:12:37 20:16:01 20° 254° (WSW) 20:19:17 437.305
AIST 1 02 Mar 20:13:48 20:16:34 16° 280° (W) 20:19:13
CUBEBUG 2 02 Mar 20:14:29 20:18:35 39° 60° (ENE) 20:22:36 437.445
AAUSAT CUBESAT 2 02 Mar 20:15:03 20:19:11 73° 69° (ENE) 20:23:22 437.432
COMPASS 1 02 Mar 20:17:39 20:21:49 82° 71° (ENE) 20:26:02 437.405
CUTE-I 02 Mar 20:21:37 20:22:57 11° 288° (WNW) 20:24:03 437.470
PRISM 02 Mar 20:22:21 20:26:32 57° 296° (WNW) 20:30:42 437.425
M-CUBED/EXP-1 PRIME 02 Mar 20:26:09 20:28:51 18° 324° (NW) 20:31:39 437.505
AUBIESAT-1 02 Mar 20:28:02 20:30:49 19° 324° (NW) 20:33:41 437.475
DX 1 02 Mar 20:32:01 20:36:12 43° 59° (ENE) 20:40:24 434.975-435.025
HO-68 02 Mar 20:32:17 20:39:24 63° 256° (WSW) 20:46:33 435.675
AISAT 02 Mar 20:36:00 20:39:52 29° 52° (NE) 20:43:46 437.250
PCSat 02 Mar 20:39:59 20:43:14 17° 110° (ESE) 20:46:38 145.827
CUBEBUG 1 02 Mar 20:40:11 20:43:25 20° 45° (NE) 20:46:42 437.445
BEESAT 3 02 Mar 20:40:27 20:44:38 84° 338° (NNW) 20:48:50 437.485
BRITE-PL 02 Mar 20:44:03 20:49:23 45° 263° (W) 20:54:24 437.365/2234.400
SEEDS 02 Mar 20:45:17 20:49:25 56° 258° (WSW) 20:53:35 437.485
VELOX 1 02 Mar 20:45:20 20:49:19 32° 54° (NE) 20:53:20 145.980
GOMX 1 02 Mar 20:48:36 20:53:45 51° 260° (W) 20:58:35 467.674
CANX-2 02 Mar 20:48:48 20:52:52 45° 261° (W) 20:56:57 2200.000
FUNcube-1 02 Mar 20:52:30 20:56:42 54° 64° (ENE) 21:00:51 145.935
50 SAT 02 Mar 20:53:28 20:56:56 30° 56° (ENE) 21:00:25 437.505
ZACube-1 02 Mar 20:53:45 20:57:58 56° 65° (ENE) 21:02:07 437.345
MOZHAYETS 4 02 Mar 20:54:57 20:57:09 13° 326° (NW) 20:59:17
HUMSAT D 02 Mar 20:56:45 21:00:38 39° 60° (ENE) 21:04:31 437.325/437.525
UKube-1 02 Mar 21:01:19 21:05:38 64° 65° (ENE) 21:10:00 .
ESTCUBE 1 02 Mar 21:01:23 21:05:11 27° 51° (NE) 21:09:03 437.505/2401.250
YUBILEINY 02 Mar 21:02:13 21:09:11 24° 337° (NNW) 21:16:05 435.215
AIST 2 02 Mar 21:03:40 21:08:00 82° 153° (SSE) 21:12:21 435.215
BEESAT 2 02 Mar 21:06:07 21:10:19 75° 342° (NNW) 21:14:32 435.950
CUTE 1.7 + AOD 2 02 Mar 21:07:40 21:11:35 35° 265° (W) 21:15:30 437.475
UWE-3 02 Mar 21:12:58 21:17:22 85° 67° (ENE) 21:21:40 435.000/436.395/437.385
SPROUT 02 Mar 21:13:04 21:15:31 15° 40° (NE) 21:18:03 437.525
CUBESAT XI-V 02 Mar 21:15:55 21:20:06 31° 307° (NW) 21:24:13 437.345
TISAT 1 02 Mar 21:16:44 21:19:09 15° 40° (NE) 21:21:37 437.305
GONETS M04 02 Mar 21:17:08 21:24:42 36° 80° (E) 21:32:24
DELFI C3 02 Mar 21:22:31 21:26:33 69° 255° (WSW) 21:30:38 145.870
STRAND 1 02 Mar 21:23:08 21:28:02 44° 304° (WNW) 21:32:54 437.568
DOVE 4 02 Mar 21:23:40 21:28:21 38° 265° (W) 21:32:47 437.250
CINEMA 3 02 Mar 21:30:57 21:35:28 46° 261° (W) 21:39:47 145.822/145.860
ITUPSAT 1 02 Mar 21:34:00 21:35:33 12° 24° (NNE) 21:37:10 437.325
ANTELSAT 02 Mar 21:42:26 21:43:07 10° 77° (ENE) 21:43:58 437.575/2403.000
Oscar 11 02 Mar 21:43:59 21:48:06 43° 262° (W) 21:52:15 145.826/435.025
CUBEBUG 2 02 Mar 21:51:00 21:55:18 47° 260° (W) 21:59:29 437.445
AAUSAT CUBESAT 2 02 Mar 21:51:53 21:55:19 24° 271° (W) 21:58:42 437.432
COMPASS 1 02 Mar 21:54:51 21:58:06 21° 272° (W) 22:01:18 437.405
PRISM 02 Mar 21:58:31 22:01:21 17° 317° (NW) 22:04:06 437.425
RS-15 02 Mar 22:03:15 22:08:41 16° 93° (E) 22:14:43 29.354- 29.394
DX 1 02 Mar 22:08:16 22:12:31 44° 261° (W) 22:16:46 434.975-435.025
AISAT 02 Mar 22:11:40 22:16:12 76° 253° (WSW) 22:20:44 437.250
CUBEBUG 1 02 Mar 22:14:44 22:19:10 67° 66° (ENE) 22:23:38 437.445
BEESAT 3 02 Mar 22:18:51 22:23:00 61° 1° (N) 22:27:09 437.485
PCSat 02 Mar 22:20:25 22:25:39 52° 132° (SE) 22:30:57 145.827
VELOX 1 02 Mar 22:21:12 22:25:41 67° 255° (WSW) 22:30:12 145.980
HO-68 02 Mar 22:23:25 22:28:44 21° 280° (W) 22:33:53 435.675
NANOSAT C BR1 02 Mar 22:24:08 22:26:21 14° 81° (E) 22:28:40 145.865
SEEDS 02 Mar 22:24:22 22:26:16 12° 281° (W) 22:28:01 437.485
BRITE-PL 02 Mar 22:26:48 22:29:15 13° 285° (WNW) 22:31:27 437.365/2234.400
50 SAT 02 Mar 22:27:49 22:31:46 59° 257° (WSW) 22:35:43 437.505
FUNcube-1 02 Mar 22:29:22 22:33:17 33° 265° (W) 22:37:08 145.935
GOMX 1 02 Mar 22:30:20 22:33:03 14° 282° (WNW) 22:35:30 467.674
ZACube-1 02 Mar 22:30:43 22:34:37 32° 266° (W) 22:38:26 437.345
HUMSAT D 02 Mar 22:32:25 22:36:26 45° 261° (W) 22:40:27 437.325/437.525
SWISSCUBE 02 Mar 22:32:59 22:36:18 19° 40° (NE) 22:39:42 437.505
ESTCUBE 1 02 Mar 22:37:09 22:41:42 84° 252° (WSW) 22:46:19 437.505/2401.250
UKube-1 02 Mar 22:38:19 22:42:10 29° 267° (W) 22:45:59 .
UNISAT 6 02 Mar 22:38:26 22:42:01 25° 91° (E) 22:45:38 437.425
BEESAT 02 Mar 22:41:26 22:44:51 20° 41° (NE) 22:48:20 436.000
AIST 2 02 Mar 22:42:31 22:46:50 63° 355° (N) 22:51:07 435.215
BEESAT 2 02 Mar 22:44:38 22:48:49 63° 6° (N) 22:52:59 435.950
SPROUT 02 Mar 22:46:37 22:50:47 46° 61° (ENE) 22:54:58 437.525
TISAT 1 02 Mar 22:50:02 22:54:08 46° 61° (ENE) 22:58:16 437.305
UWE-3 02 Mar 22:51:05 22:54:29 21° 272° (W) 22:57:46 435.000/436.395/437.385
KKS-1 02 Mar 22:53:13 22:54:08 11° 28° (NNE) 22:55:08 437.445
CUBESAT XI-V 02 Mar 22:54:21 22:56:21 12° 329° (NNW) 22:58:13 437.345
QB50P1 02 Mar 22:56:20 22:59:45 23° 89° (E) 23:03:11 145.935-145.965
QB50P2 02 Mar 23:00:11 23:03:42 25° 90° (E) 23:07:15 145.880/145.840
DELFI C3 02 Mar 23:00:13 23:02:36 15° 278° (W) 23:04:51 145.870
STRAND 1 02 Mar 23:02:51 23:06:13 18° 326° (NNW) 23:09:31 437.568
TIGRISAT 02 Mar 23:03:19 23:07:17 36° 96° (E) 23:11:17 435.000
YUBILEINY 02 Mar 23:03:26 23:09:51 21° 9° (N) 23:16:20 435.215
BUGSAT 1 02 Mar 23:05:57 23:09:16 22° 89° (E) 23:12:34 437.445
ITUPSAT 1 02 Mar 23:08:10 23:12:05 26° 47° (NE) 23:16:05 437.325
GONETS M04 02 Mar 23:12:06 23:20:49 88° 286° (WNW) 23:29:37
CINEMA 3 02 Mar 23:12:25 23:13:50 11° 283° (WNW) 23:15:05 145.822/145.860
DUCHIFAT 1 02 Mar 23:15:02 23:18:48 30° 93° (E) 23:22:35 145.980
ANTELSAT 02 Mar 23:16:57 23:21:07 46° 100° (E) 23:25:17 437.575/2403.000
CUBEBUG 2 02 Mar 23:31:56 23:33:09 11° 283° (WNW) 23:34:11 437.445
POLYITAN 1 02 Mar 23:35:23 23:39:28 43° 99° (E) 23:43:31 437.675
POPSAT HIP 1 02 Mar 23:35:48 23:39:53 43° 98° (E) 23:43:56 437.405
DX 1 02 Mar 23:49:15 23:50:00 10° 283° (WNW) 23:50:33 434.975-435.025
AISAT 02 Mar 23:50:28 23:53:37 18° 275° (W) 23:56:40 437.250
CUBEBUG 1 02 Mar 23:52:01 23:55:57 28° 268° (W) 23:59:50 437.445
DANDE 02 Mar 23:52:42 23:57:19 26° 94° (E) 00:01:03 436.750
BEESAT 3 02 Mar 23:57:09 00:01:21 88° 23° (NNE) 00:05:31 437.485
NANOSAT C BR1 02 Mar 23:58:54 00:03:08 63° 103° (ESE) 00:07:20 145.865
VELOX 1 03 Mar 00:00:21 00:03:11 16° 277° (W) 00:05:54 145.980
PCSat 03 Mar 00:03:36 00:09:03 72° 335° (NNW) 00:14:32 145.827
50 SAT 03 Mar 00:05:56 00:07:42 12° 279° (W) 00:09:19 437.505
RS-15 03 Mar 00:08:03 00:18:00 45° 120° (ESE) 00:28:19 29.354- 29.394
SWISSCUBE 03 Mar 00:08:42 00:13:23 55° 62° (ENE) 00:18:07 437.505
UNISAT 6 03 Mar 00:14:59 00:19:16 70° 293° (WNW) 00:23:33 437.425
ESTCUBE 1 03 Mar 00:15:55 00:19:19 20° 274° (W) 00:22:40 437.505/2401.250
BEESAT 03 Mar 00:17:15 00:21:58 59° 63° (ENE) 00:26:43 436.000
CUSAT 1 03 Mar 00:20:48 00:25:44 42° 100° (E) 00:29:31 437.405
AIST 2 03 Mar 00:21:24 00:25:45 78° 18° (NNE) 00:30:04 435.215
SPROUT 03 Mar 00:22:52 00:26:59 40° 263° (W) 00:31:07 437.525
BEESAT 2 03 Mar 00:22:57 00:27:11 80° 210° (SSW) 00:31:22 435.950
KKS-1 03 Mar 00:25:50 00:29:32 26° 50° (NE) 00:33:16 437.445
TISAT 1 03 Mar 00:26:00 00:30:04 39° 263° (W) 00:34:07 437.305
QB50P1 03 Mar 00:31:52 00:36:09 77° 291° (WNW) 00:40:23 145.935-145.965
STARS 03 Mar 00:31:59 00:35:25 23° 48° (NE) 00:38:55 437.465
QB50P2 03 Mar 00:35:48 00:40:05 72° 292° (WNW) 00:44:18 145.880/145.840
TIGRISAT 03 Mar 00:40:05 00:44:14 49° 298° (WNW) 00:48:22 435.000
BUGSAT 1 03 Mar 00:41:02 00:45:18 80° 291° (WNW) 00:49:28 437.445
STRAND 1 03 Mar 00:42:50 00:43:39 10° 351° (N) 00:44:25 437.568
ITUPSAT 1 03 Mar 00:44:41 00:49:31 84° 68° (ENE) 00:54:22 437.325
DUCHIFAT 1 03 Mar 00:50:45 00:54:57 58° 295° (WNW) 00:59:06 145.980
ANTELSAT 03 Mar 00:53:55 00:57:56 39° 301° (WNW) 01:01:57 437.575/2403.000
YUBILEINY 03 Mar 01:02:13 01:10:03 34° 41° (NE) 01:17:58 435.215
M-CUBED/EXP-1 PRIME 03 Mar 01:07:26 01:09:41 16° 33° (NNE) 01:12:03 437.505
AUBIESAT-1 03 Mar 01:09:14 01:11:26 16° 32° (NNE) 01:13:47 437.475
GONETS M04 03 Mar 01:10:54 01:18:55 38° 313° (NW) 01:26:56
POLYITAN 1 03 Mar 01:11:25 01:15:27 42° 300° (WNW) 01:19:27 437.675
POPSAT HIP 1 03 Mar 01:11:47 01:15:50 42° 300° (WNW) 01:19:50 437.405
ITAMSAT 1 03 Mar 01:23:49 01:26:20 14° 77° (ENE) 01:29:02 435.822/435.867
Oscar 19 03 Mar 01:24:00 01:28:20 27° 89° (E) 01:32:42 437.125/150
DANDE 03 Mar 01:34:45 01:40:31 76° 291° (WNW) 01:44:43 436.750
NANOSAT C BR1 03 Mar 01:35:03 01:38:50 31° 305° (NW) 01:42:33 145.865
BEESAT 3 03 Mar 01:35:23 01:39:12 35° 226° (SW) 01:42:58 437.485
MOZHAYETS 4 03 Mar 01:40:35 01:43:15 16° 38° (NE) 01:46:01
SWISSCUBE 03 Mar 01:46:59 01:51:29 38° 264° (W) 01:56:00 437.505
PCSat 03 Mar 01:47:43 01:53:04 53° 359° (N) 01:58:26 145.827
UNISAT 6 03 Mar 01:52:22 01:55:30 20° 314° (NW) 01:58:35 437.425
BEESAT 03 Mar 01:55:42 02:00:07 35° 265° (W) 02:04:33 436.000
AIST 2 03 Mar 02:00:06 02:04:16 46° 221° (SW) 02:08:22 435.215
KKS-1 03 Mar 02:01:18 02:05:48 86° 252° (WSW) 02:10:19 437.445
BEESAT 2 03 Mar 02:01:22 02:04:59 28° 230° (SW) 02:08:31 435.950
CUSAT 1 03 Mar 02:03:49 02:08:39 42° 297° (WNW) 02:12:19 437.405
STARS 03 Mar 02:06:58 02:11:25 80° 69° (ENE) 02:15:52 437.465
QB50P1 03 Mar 02:08:17 02:11:31 21° 312° (NW) 02:14:41 145.935-145.965
QB50P2 03 Mar 02:12:17 02:15:26 20° 314° (NW) 02:18:31 145.880/145.840
BUGSAT 1 03 Mar 02:17:02 02:20:18 21° 312° (NW) 02:23:27 437.445
TIGRISAT 03 Mar 02:17:40 02:20:12 15° 319° (NW) 02:22:41 435.000
RS-15 03 Mar 02:18:25 02:29:23 83° 150° (SSE) 02:40:46 29.354- 29.394
SO-50 03 Mar 02:19:09 02:22:35 21° 122° (ESE) 02:26:12 436.795
STRAND 1 03 Mar 02:19:19 02:20:49 11° 15° (NNE) 02:22:21 437.568
ITUPSAT 1 03 Mar 02:24:03 02:28:02 25° 271° (W) 02:31:58 437.325
DUCHIFAT 1 03 Mar 02:27:17 02:30:07 17° 317° (NW) 02:32:52 145.980
ANTELSAT 03 Mar 02:31:42 02:33:49 13° 323° (NW) 02:35:51 437.575/2403.000
Gurwin Techsat 1B 03 Mar 02:36:17 02:41:00 31° 91° (E) 02:45:44 435.225
M-CUBED/EXP-1 PRIME 03 Mar 02:40:37 02:43:58 52° 55° (NE) 02:47:35 437.505
AUBIESAT-1 03 Mar 02:42:17 02:45:38 50° 55° (NE) 02:49:15 437.475
POLYITAN 1 03 Mar 02:48:16 02:50:30 14° 322° (NW) 02:52:40 437.675
POPSAT HIP 1 03 Mar 02:48:36 02:50:50 14° 322° (NW) 02:53:01 437.405
JAS-2 03 Mar 02:59:04 03:03:09 16° 71° (ENE) 03:07:41 435.910
YUBILEINY 03 Mar 02:59:39 03:08:33 75° 69° (ENE) 03:17:26 435.215
ITAMSAT 1 03 Mar 03:02:05 03:07:12 51° 100° (E) 03:12:18 435.822/435.867
Oscar 19 03 Mar 03:03:09 03:08:19 82° 292° (WNW) 03:13:28 437.125/150
NANOSAT C BR1 03 Mar 03:12:16 03:13:36 11° 327° (NNW) 03:14:52 145.865
GONETS M04 03 Mar 03:12:20 03:18:51 22° 344° (NNW) 03:25:20
MOZHAYETS 4 03 Mar 03:15:13 03:19:35 45° 60° (ENE) 03:24:00
AO-7 03 Mar 03:15:52 03:21:54 22° 79° (E) 03:28:09 29.400- 29.500
DANDE 03 Mar 03:20:26 03:24:21 21° 309° (NW) 03:27:30 436.750
PCSat 03 Mar 03:31:38 03:37:06 71° 25° (NNE) 03:42:33 145.827
AIST 2 03 Mar 03:39:44 03:42:02 14° 242° (WSW) 03:44:13 435.215
KKS-1 03 Mar 03:39:45 03:43:09 20° 273° (W) 03:46:27 437.445
CUBESAT XI-V 03 Mar 03:39:54 03:43:05 18° 42° (NE) 03:46:21 437.345
STARS 03 Mar 03:44:48 03:48:26 24° 270° (W) 03:52:00 437.465
HORYU 2 03 Mar 03:45:11 03:49:12 32° 95° (E) 03:53:13 437.375
CUSAT 1 03 Mar 03:50:43 03:52:22 12° 318° (NW) 03:53:49 437.405
STRAND 1 03 Mar 03:54:36 03:58:23 21° 39° (NE) 04:02:14 437.568
SO-50 03 Mar 03:57:45 04:02:25 59° 144° (SE) 04:07:15 436.795
PRISM 03 Mar 04:13:28 04:16:51 24° 50° (NE) 04:20:19 437.425
Gurwin Techsat 1B 03 Mar 04:16:10 04:21:30 75° 295° (WNW) 04:26:50 435.225
M-CUBED/EXP-1 PRIME 03 Mar 04:16:14 04:19:13 27° 258° (WSW) 04:22:22 437.505
AUBIESAT-1 03 Mar 04:17:45 04:20:47 29° 258° (WSW) 04:24:00 437.475
RS-15 03 Mar 04:31:08 04:42:15 80° 0° (N) 04:53:50 29.354- 29.394
ITAMSAT 1 03 Mar 04:41:44 04:46:46 47° 303° (WNW) 04:51:46 435.822/435.867
Oscar 19 03 Mar 04:42:54 04:47:10 27° 314° (NW) 04:51:24 437.125/150
JAS-2 03 Mar 04:43:17 04:50:05 47° 95° (E) 04:57:30 435.910
MOZHAYETS 4 03 Mar 04:52:30 04:56:54 44° 262° (W) 05:01:20
YUBILEINY 03 Mar 04:56:49 05:05:03 45° 275° (W) 05:13:11 435.215
CUTE-I 03 Mar 05:03:35 05:04:39 11° 72° (ENE) 05:05:58 437.470
AO-7 03 Mar 05:08:26 05:16:42 61° 105° (ESE) 05:24:54 29.400- 29.500
GONETS M04 03 Mar 05:13:03 05:19:34 22° 17° (NNE) 05:26:10
CUBESAT XI-V 03 Mar 05:15:08 05:19:45 55° 63° (ENE) 05:24:24 437.345
PCSat 03 Mar 05:15:12 05:20:30 53° 228° (SW) 05:25:46 145.827
HORYU 2 03 Mar 05:21:46 05:26:10 59° 296° (WNW) 05:30:33 437.375
STRAND 1 03 Mar 05:31:45 05:36:48 58° 61° (ENE) 05:41:54 437.568
SO-50 03 Mar 05:38:11 05:43:00 75° 347° (NNW) 05:47:58 436.795
PRISM 03 Mar 05:47:46 05:51:58 86° 249° (WSW) 05:56:13 437.425
Gurwin Techsat 1B 03 Mar 05:56:32 06:00:54 26° 316° (NW) 06:05:12 435.225
ITAMSAT 1 03 Mar 06:21:43 06:25:19 19° 325° (NW) 06:28:51 435.822/435.867
Oscar 19 03 Mar 06:22:56 06:25:06 13° 337° (NNW) 06:27:13 437.125/150
JAS-2 03 Mar 06:28:33 06:35:31 69° 297° (WNW) 06:43:09 435.910
Cubesat XI-IV 03 Mar 06:32:32 06:37:30 36° 94° (E) 06:42:27 437.490
MOZHAYETS 4 03 Mar 06:34:15 06:35:26 11° 285° (WNW) 06:36:26
CUTE-I 03 Mar 06:41:21 06:46:25 40° 96° (E) 06:51:28 437.470
RS-15 03 Mar 06:43:57 06:55:08 84° 211° (SSW) 07:06:51 29.354- 29.394
CUBESAT XI-V 03 Mar 06:53:01 06:57:25 37° 265° (W) 07:01:51 437.345
YUBILEINY 03 Mar 06:54:40 06:59:39 16° 301° (WNW) 07:04:19 435.215
HORYU 2 03 Mar 06:59:03 07:02:09 19° 317° (NW) 07:05:12 437.375
PCSat 03 Mar 06:59:28 07:02:58 17° 250° (WSW) 07:06:18 145.827
AO-7 03 Mar 07:01:32 07:09:41 60° 310° (NW) 07:17:46 29.400- 29.500
TIGRISAT 03 Mar 07:04:05 07:05:03 11° 32° (NNE) 07:06:06 435.000
GONETS M04 03 Mar 07:11:22 07:19:26 40° 48° (NE) 07:27:35
STRAND 1 03 Mar 07:11:24 07:16:16 40° 264° (W) 07:21:09 437.568
AIST 1 03 Mar 07:16:09 07:20:10 36° 92° (E) 07:24:15
ANTELSAT 03 Mar 07:17:02 07:18:46 12° 35° (NE) 07:20:34 437.575/2403.000
SO-50 03 Mar 07:19:01 07:23:54 73° 10° (N) 07:28:52 436.795
PRISM 03 Mar 07:25:07 07:28:09 19° 273° (W) 07:31:08 437.425
POLYITAN 1 03 Mar 07:31:34 07:32:52 11° 33° (NNE) 07:34:14 437.675
POPSAT HIP 1 03 Mar 07:31:49 07:33:05 11° 33° (NNE) 07:34:26 437.405
Gurwin Techsat 1B 03 Mar 07:37:03 07:39:22 13° 340° (NNW) 07:41:38 435.225
HO-68 03 Mar 07:48:07 07:52:46 18° 77° (ENE) 07:57:38 435.675
NANOSAT C BR1 03 Mar 07:53:36 07:55:45 14° 38° (NE) 07:57:59 145.865
ITAMSAT 1 03 Mar 08:01:43 08:03:04 11° 349° (N) 08:04:23 435.822/435.867
Cubesat XI-IV 03 Mar 08:12:38 08:18:00 66° 297° (WNW) 08:23:20 437.490
UNISAT 6 03 Mar 08:12:44 08:16:04 22° 48° (NE) 08:19:24 437.425
JAS-2 03 Mar 08:13:54 08:19:47 31° 319° (NW) 08:26:04 435.910
SEEDS 03 Mar 08:19:42 08:22:00 14° 82° (E) 08:24:25 437.485
CUTE-I 03 Mar 08:21:29 08:26:48 60° 299° (WNW) 08:32:05 437.470
CANX-2 03 Mar 08:23:31 08:26:28 18° 85° (E) 08:29:29 2200.000
QB50P1 03 Mar 08:25:22 08:28:24 20° 46° (NE) 08:31:30 145.935-145.965
QB50P2 03 Mar 08:29:17 08:32:25 21° 47° (NE) 08:35:38 145.880/145.840
BUGSAT 1 03 Mar 08:32:39 08:35:35 19° 45° (NE) 08:38:35 437.445
TIGRISAT 03 Mar 08:36:58 08:40:42 29° 54° (NE) 08:44:25 435.000
BRITE-PL 03 Mar 08:37:58 08:42:16 31° 91° (E) 08:46:17 437.365/2234.400
GOMX 1 03 Mar 08:39:50 08:43:33 24° 87° (E) 08:47:08 467.674
CUTE 1.7 + AOD 2 03 Mar 08:41:49 08:45:11 23° 88° (E) 08:48:37 437.475
DUCHIFAT 1 03 Mar 08:43:28 08:46:52 24° 50° (NE) 08:50:17 145.980
ANTELSAT 03 Mar 08:50:38 08:54:34 35° 57° (ENE) 08:58:30 437.575/2403.000
AIST 1 03 Mar 08:53:30 08:57:47 49° 294° (WNW) 09:02:07
DELFI C3 03 Mar 08:54:08 08:54:24 10° 77° (ENE) 08:54:51 145.870
AO-7 03 Mar 08:54:09 09:01:19 33° 336° (NNW) 09:08:24 29.400- 29.500
STRAND 1 03 Mar 08:56:11 08:57:04 10° 287° (WNW) 08:57:44 437.568
RS-15 03 Mar 08:56:13 09:06:41 46° 239° (WSW) 09:17:29 29.354- 29.394
O/OREOS (USA 219) 03 Mar 08:57:59 09:00:14 14° 100° (E) 09:02:38 437.305
SO-50 03 Mar 08:59:41 09:04:33 65° 214° (SSW) 09:09:27 436.795
POLYITAN 1 03 Mar 09:03:56 09:07:43 31° 55° (NE) 09:11:30 437.675
POPSAT HIP 1 03 Mar 09:04:08 09:07:54 31° 55° (NE) 09:11:41 437.405
CUSAT 1 03 Mar 09:05:58 09:07:14 12° 43° (NE) 09:08:29 437.405
GONETS M04 03 Mar 09:08:41 09:17:29 90° 72° (ENE) 09:26:18
DOVE 4 03 Mar 09:11:37 09:15:31 30° 92° (E) 09:19:17 437.250
CINEMA 3 03 Mar 09:15:07 09:18:20 21° 87° (E) 09:21:33 145.822/145.860
Gurwin Techsat 1B 03 Mar 09:16:21 09:17:18 10° 5° (N) 09:18:16 435.225
Oscar 11 03 Mar 09:20:30 09:23:39 20° 86° (E) 09:26:53 145.826/435.025
AAUSAT CUBESAT 2 03 Mar 09:23:06 09:26:52 31° 94° (E) 09:30:39 437.432
COMPASS 1 03 Mar 09:26:10 09:30:04 36° 96° (E) 09:33:59 437.405
NANOSAT C BR1 03 Mar 09:26:42 09:30:44 41° 60° (ENE) 09:34:47 145.865
CUBEBUG 2 03 Mar 09:31:30 09:34:27 18° 86° (E) 09:37:26 437.445
HO-68 03 Mar 09:35:15 09:42:19 55° 102° (ESE) 09:49:23 435.675
Oscar 19 03 Mar 09:37:21 09:39:53 14° 27° (NNE) 09:42:30 437.125/150
ITAMSAT 1 03 Mar 09:38:55 09:40:32 11° 14° (NNE) 09:42:13 435.822/435.867
DX 1 03 Mar 09:46:05 09:49:02 18° 85° (E) 09:52:03 434.975-435.025
UNISAT 6 03 Mar 09:48:02 09:52:24 82° 67° (ENE) 09:56:44 437.425
Cubesat XI-IV 03 Mar 09:53:08 09:57:24 24° 319° (NW) 10:01:36 437.490
AISAT 03 Mar 09:53:19 09:54:52 12° 78° (ENE) 09:56:34 437.250
SEEDS 03 Mar 09:54:29 09:58:43 65° 104° (ESE) 10:02:56 437.485
50 SAT 03 Mar 09:57:30 09:58:15 11° 79° (ENE) 09:59:11 437.505
JAS-2 03 Mar 09:58:45 10:03:04 18° 344° (NNW) 10:07:35 435.910
CANX-2 03 Mar 09:58:49 10:03:06 83° 106° (ESE) 10:07:23 2200.000
QB50P1 03 Mar 09:59:26 10:03:43 68° 66° (ENE) 10:07:59 145.935-145.965
CUTE-I 03 Mar 10:01:59 10:06:06 23° 321° (NW) 10:10:08 437.470
VELOX 1 03 Mar 10:02:06 10:04:13 13° 80° (E) 10:06:29 145.980
QB50P2 03 Mar 10:03:31 10:07:48 74° 68° (ENE) 10:12:06 145.880/145.840
BUGSAT 1 03 Mar 10:06:13 10:10:28 63° 66° (ENE) 10:14:42 437.445
HUMSAT D 03 Mar 10:06:14 10:08:52 17° 84° (E) 10:11:35 437.325/437.525
FUNcube-1 03 Mar 10:06:30 10:09:57 25° 90° (E) 10:13:25 145.935
ZACube-1 03 Mar 10:07:59 10:11:29 25° 91° (E) 10:15:00 437.345
TIGRISAT 03 Mar 10:12:53 10:17:13 70° 254° (WSW) 10:21:32 435.000
UKube-1 03 Mar 10:14:26 10:18:06 26° 92° (E) 10:21:48 .
BRITE-PL 03 Mar 10:16:23 10:21:14 62° 295° (WNW) 10:25:40 437.365/2234.400
CUTE 1.7 + AOD 2 03 Mar 10:17:22 10:21:38 79° 290° (WNW) 10:25:54 437.475
GOMX 1 03 Mar 10:17:39 10:22:19 77° 291° (WNW) 10:26:38 467.674
DUCHIFAT 1 03 Mar 10:17:59 10:22:17 89° 96° (E) 10:26:36 145.980
ESTCUBE 1 03 Mar 10:20:33 10:22:09 12° 77° (ENE) 10:23:54 437.505/2401.250
DANDE 03 Mar 10:22:12 10:25:14 37° 61° (ENE) 10:27:49 436.750
DELFI C3 03 Mar 10:26:45 10:30:43 46° 100° (E) 10:34:42 145.870
ANTELSAT 03 Mar 10:27:01 10:31:18 54° 258° (WSW) 10:35:33 437.575/2403.000
UWE-3 03 Mar 10:28:34 10:32:33 40° 98° (E) 10:36:29 435.000/436.395/437.385
AIST 1 03 Mar 10:34:00 10:36:36 15° 318° (NW) 10:39:08
O/OREOS (USA 219) 03 Mar 10:34:19 10:38:47 54° 122° (ESE) 10:43:19 437.305
POLYITAN 1 03 Mar 10:39:10 10:43:27 64° 255° (WSW) 10:47:43 437.675
POPSAT HIP 1 03 Mar 10:39:19 10:43:35 65° 255° (WSW) 10:47:52 437.405
SO-50 03 Mar 10:40:34 10:44:31 24° 235° (SW) 10:48:25 436.795
AO-7 03 Mar 10:45:29 10:52:09 28° 4° (N) 10:58:47 29.400- 29.500
CUSAT 1 03 Mar 10:47:53 10:50:51 86° 70° (ENE) 10:53:28 437.405
DOVE 4 03 Mar 10:49:16 10:53:40 60° 295° (WNW) 10:57:51 437.250
CINEMA 3 03 Mar 10:51:53 10:56:12 84° 290° (WNW) 11:00:22 145.822/145.860
Gurwin Techsat 1B 03 Mar 10:52:16 10:55:23 16° 29° (NNE) 10:58:33 435.225
Oscar 11 03 Mar 10:56:08 11:00:30 87° 107° (ESE) 11:04:52 145.826/435.025
AAUSAT CUBESAT 2 03 Mar 10:58:40 11:02:47 55° 295° (WNW) 11:06:53 437.432
COMPASS 1 03 Mar 11:01:52 11:05:57 49° 297° (WNW) 11:10:01 437.405
NANOSAT C BR1 03 Mar 11:02:31 11:06:38 44° 261° (W) 11:10:46 145.865
GONETS M04 03 Mar 11:05:55 11:13:33 35° 281° (W) 11:21:08
CUBEBUG 2 03 Mar 11:07:37 11:11:51 87° 108° (ESE) 11:16:01 437.445
RS-15 03 Mar 11:09:30 11:16:14 17° 265° (W) 11:22:34 29.354- 29.394
Oscar 19 03 Mar 11:13:29 11:17:59 32° 50° (NE) 11:22:29 437.125/150
ITAMSAT 1 03 Mar 11:14:35 11:18:24 21° 38° (NE) 11:22:16 435.822/435.867
DX 1 03 Mar 11:21:38 11:26:04 77° 108° (ESE) 11:30:27 434.975-435.025
